Time,TemperatureF,DewpointF,PressureIn,WindDirection,WindDirectionDegrees,WindSpeedMPH,WindSpeedGustMPH,Humidity,HourlyPrecipIn,Conditions,Clouds,dailyrainin,SoftwareType,DateUTC
2013-07-06 00:02:00,68.0,54.0,-100.00,NE,40,5.0,11.0,61,-99.99,,,-99.99,,2013-07-06 06:02:00,
2013-07-06 00:12:00,68.0,54.0,-100.00,East,100,6.0,8.0,61,-99.99,,,-99.99,,2013-07-06 06:12:00,
2013-07-06 00:22:00,68.0,54.0,-100.00,East,100,6.0,8.0,61,-99.99,,,-99.99,,2013-07-06 06:22:00,
2013-07-06 00:34:00,68.0,54.0,-100.00,East,100,6.0,8.0,61,-99.99,,,-99.99,,2013-07-06 06:34:00,
2013-07-06 00:43:00,68.0,54.0,-100.00,East,100,6.0,8.0,61,-99.99,,,-99.99,,2013-07-06 06:43:00,
2013-07-06 00:53:00,67.0,53.0,-100.00,East,95,6.0,8.0,61,-99.99,,,-99.99,,2013-07-06 06:53:00,
2013-07-06 01:02:00,67.0,53.0,-100.00,East,95,6.0,8.0,61,-99.99,,,-99.99,,2013-07-06 07:02:00,
2013-07-06 01:12:00,66.0,54.0,-100.00,SE,125,4.0,7.0,64,-99.99,,,-99.99,,2013-07-06 07:12:00,
2013-07-06 01:22:00,66.0,54.0,-100.00,SE,125,4.0,7.0,64,-99.99,,,-99.99,,2013-07-06 07:22:00,
2013-07-06 01:33:00,66.0,54.0,-100.00,SE,125,4.0,7.0,64,-99.99,,,-99.99,,2013-07-06 07:33:00,
2013-07-06 01:44:00,66.0,54.0,-100.00,SE,125,4.0,7.0,64,-99.99,,,-99.99,,2013-07-06 07:44:00,
2013-07-06 01:52:00,67.0,54.0,-100.00,WNW,295,3.0,6.0,64,-99.99,,,-99.99,,2013-07-06 07:52:00,
2013-07-06 02:02:00,67.0,54.0,-100.00,WNW,295,3.0,6.0,64,-99.99,,,-99.99,,2013-07-06 08:02:00,
2013-07-06 02:12:00,66.0,54.0,-100.00,WNW,290,6.0,9.0,64,-99.99,,,-99.99,,2013-07-06 08:12:00,
2013-07-06 02:21:00,66.0,54.0,-100.00,WNW,290,6.0,9.0,64,-99.99,,,-99.99,,2013-07-06 08:21:00,
2013-07-06 02:34:00,66.0,54.0,-100.00,WNW,290,6.0,9.0,64,-99.99,,,-99.99,,2013-07-06 08:34:00,
2013-07-06 02:43:00,66.0,54.0,-100.00,WNW,290,6.0,9.0,64,-99.99,,,-99.99,,2013-07-06 08:43:00,
2013-07-06 02:54:00,66.0,54.0,-100.00,West,280,6.0,9.0,66,-99.99,,,-99.99,,2013-07-06 08:54:00,
2013-07-06 03:02:00,66.0,54.0,-100.00,West,280,6.0,9.0,66,-99.99,,,-99.99,,2013-07-06 09:02:00,
2013-07-06 03:11:00,65.0,54.0,-100.00,West,270,4.0,8.0,66,-99.99,,,-99.99,,2013-07-06 09:11:00,
2013-07-06 03:22:00,65.0,54.0,-100.00,West,270,4.0,8.0,66,-99.99,,,-99.99,,2013-07-06 09:22:00,
2013-07-06 03:33:00,65.0,54.0,-100.00,West,270,4.0,8.0,66,-99.99,,,-99.99,,2013-07-06 09:33:00,
2013-07-06 03:43:00,65.0,54.0,-100.00,West,270,4.0,8.0,66,-99.99,,,-99.99,,2013-07-06 09:43:00,
2013-07-06 03:52:00,64.0,56.0,-100.00,SW,235,7.0,9.0,75,-99.99,,,-99.99,,2013-07-06 09:52:00,
2013-07-06 04:02:00,64.0,56.0,-100.00,SW,235,7.0,9.0,75,-99.99,,,-99.99,,2013-07-06 10:02:00,
2013-07-06 04:11:00,63.0,55.0,-100.00,SW,220,3.0,7.0,76,-99.99,,,-99.99,,2013-07-06 10:11:00,
2013-07-06 04:22:00,63.0,55.0,-100.00,SW,220,3.0,7.0,76,-99.99,,,-99.99,,2013-07-06 10:22:00,
2013-07-06 04:33:00,63.0,55.0,-100.00,SW,220,3.0,7.0,76,-99.99,,,-99.99,,2013-07-06 10:33:00,
2013-07-06 04:42:00,63.0,55.0,-100.00,SW,220,3.0,7.0,76,-99.99,,,-99.99,,2013-07-06 10:42:00,
2013-07-06 04:53:00,63.0,56.0,-100.00,NW,305,2.0,4.0,76,-99.99,,,0.00,,2013-07-06 10:53:00,
2013-07-06 05:01:00,63.0,56.0,-100.00,NW,305,2.0,4.0,76,-99.99,,,0.00,,2013-07-06 11:01:00,
2013-07-06 05:11:00,63.0,54.0,-100.00,WNW,300,3.0,4.0,74,-99.99,,,0.00,,2013-07-06 11:11:00,
2013-07-06 05:22:00,63.0,54.0,-100.00,WNW,300,3.0,4.0,74,-99.99,,,0.00,,2013-07-06 11:22:00,
2013-07-06 05:33:00,63.0,54.0,-100.00,WNW,300,3.0,4.0,74,-99.99,,,0.00,,2013-07-06 11:33:00,
2013-07-06 05:42:00,63.0,54.0,-100.00,WNW,300,3.0,4.0,74,-99.99,,,0.00,,2013-07-06 11:42:00,
2013-07-06 05:53:00,62.0,53.0,-100.00,NW,320,0.0,3.0,72,-99.99,,,0.00,,2013-07-06 11:53:00,
2013-07-06 06:01:00,62.0,53.0,-100.00,NW,320,0.0,3.0,72,-99.99,,,0.00,,2013-07-06 12:01:00,
2013-07-06 06:11:00,59.0,53.0,-100.00,SSW,210,1.0,2.0,79,-99.99,,,0.00,,2013-07-06 12:11:00,
2013-07-06 06:22:00,59.0,53.0,-100.00,SSW,210,1.0,2.0,79,-99.99,,,0.00,,2013-07-06 12:22:00,
2013-07-06 06:33:00,59.0,53.0,-100.00,SSW,210,1.0,2.0,79,-99.99,,,0.00,,2013-07-06 12:33:00,
2013-07-06 06:43:00,59.0,53.0,-100.00,SSW,210,1.0,2.0,79,-99.99,,,0.00,,2013-07-06 12:43:00,
2013-07-06 06:52:00,62.0,54.0,-100.00,NNW,340,3.0,3.0,75,-99.99,,,0.00,,2013-07-06 12:52:00,
2013-07-06 07:01:00,62.0,54.0,-100.00,NNW,340,3.0,3.0,75,-99.99,,,0.00,,2013-07-06 13:01:00,
2013-07-06 07:12:00,64.0,52.0,-100.00,NNW,345,1.0,4.0,64,-99.99,,,0.00,,2013-07-06 13:12:00,
2013-07-06 07:22:00,64.0,52.0,-100.00,NNW,345,1.0,4.0,64,-99.99,,,0.00,,2013-07-06 13:22:00,
2013-07-06 07:33:00,64.0,52.0,-100.00,NNW,345,1.0,4.0,64,-99.99,,,0.00,,2013-07-06 13:33:00,
2013-07-06 07:43:00,64.0,52.0,-100.00,NNW,345,1.0,4.0,64,-99.99,,,0.00,,2013-07-06 13:43:00,
2013-07-06 07:52:00,65.0,52.0,-100.00,NW,310,2.0,4.0,62,-99.99,,,0.00,,2013-07-06 13:52:00,
2013-07-06 08:02:00,65.0,52.0,-100.00,NW,310,2.0,4.0,62,-99.99,,,0.00,,2013-07-06 14:02:00,
2013-07-06 08:11:00,67.0,51.0,-100.00,WSW,240,6.0,7.0,57,-99.99,,,0.00,,2013-07-06 14:11:00,
2013-07-06 08:22:00,67.0,51.0,-100.00,WSW,240,6.0,7.0,57,-99.99,,,0.00,,2013-07-06 14:22:00,
2013-07-06 08:34:00,67.0,51.0,-100.00,WSW,240,6.0,7.0,57,-99.99,,,0.00,,2013-07-06 14:34:00,
2013-07-06 08:42:00,67.0,51.0,-100.00,WSW,240,6.0,7.0,57,-99.99,,,0.00,,2013-07-06 14:42:00,
2013-07-06 08:53:00,69.0,50.0,-100.00,WSW,240,3.0,6.0,50,-99.99,,,0.00,,2013-07-06 14:53:00,
2013-07-06 09:02:00,69.0,50.0,-100.00,WSW,240,3.0,6.0,50,-99.99,,,0.00,,2013-07-06 15:02:00,
2013-07-06 09:12:00,73.0,51.0,-100.00,NW,315,1.0,6.0,47,-99.99,,,0.00,,2013-07-06 15:12:00,
2013-07-06 09:22:00,73.0,51.0,-100.00,NW,315,1.0,6.0,47,-99.99,,,0.00,,2013-07-06 15:22:00,
2013-07-06 09:33:00,73.0,51.0,-100.00,NW,315,1.0,6.0,47,-99.99,,,0.00,,2013-07-06 15:33:00,
2013-07-06 09:43:00,73.0,51.0,-100.00,NW,315,1.0,6.0,47,-99.99,,,0.00,,2013-07-06 15:43:00,
2013-07-06 09:47:00,74.0,51.0,-100.00,WSW,250,6.0,7.0,43,-99.99,,,0.00,,2013-07-06 15:47:00,
2013-07-06 09:53:00,73.0,51.0,-100.00,West,260,3.0,8.0,46,-99.99,,,0.00,,2013-07-06 15:53:00,
2013-07-06 10:07:00,73.0,51.0,-100.00,West,260,3.0,8.0,46,-99.99,,,0.00,,2013-07-06 16:07:00,
2013-07-06 10:15:00,74.0,51.0,-100.00,WSW,250,6.0,7.0,43,-99.99,,,0.00,,2013-07-06 16:15:00,
2013-07-06 10:24:00,74.0,51.0,-100.00,WSW,250,6.0,7.0,43,-99.99,,,0.00,,2013-07-06 16:24:00,
2013-07-06 10:46:00,77.0,51.0,-100.00,NW,320,2.0,5.0,40,-99.99,,,0.00,,2013-07-06 16:46:00,
2013-07-06 10:59:00,77.0,51.0,-100.00,WSW,240,3.0,6.0,41,-99.99,,,0.00,,2013-07-06 16:59:00,
2013-07-06 11:11:00,77.0,51.0,-100.00,WSW,240,3.0,6.0,41,-99.99,,,0.00,,2013-07-06 17:11:00,
2013-07-06 11:21:00,77.0,51.0,-100.00,NW,320,2.0,5.0,40,-99.99,,,0.00,,2013-07-06 17:21:00,
2013-07-06 11:30:00,77.0,51.0,-100.00,NW,320,2.0,5.0,40,-99.99,,,0.00,,2013-07-06 17:30:00,
2013-07-06 11:41:00,77.0,51.0,-100.00,NW,320,2.0,5.0,40,-99.99,,,0.00,,2013-07-06 17:41:00,
2013-07-06 11:46:00,77.0,49.0,-100.00,NE,50,4.0,11.0,38,-99.99,,,0.00,,2013-07-06 17:46:00,
2013-07-06 11:59:00,75.0,50.0,-100.00,North,0,6.0,10.0,41,-99.99,,,0.00,,2013-07-06 17:59:00,
2013-07-06 12:31:00,77.0,49.0,-100.00,NE,50,4.0,11.0,38,-99.99,,,0.00,,2013-07-06 18:31:00,
2013-07-06 12:42:00,77.0,49.0,-100.00,NE,50,4.0,11.0,38,-99.99,,,0.00,,2013-07-06 18:42:00,
2013-07-06 12:46:00,79.0,48.0,-100.00,North,10,6.0,8.0,33,-99.99,,,0.00,,2013-07-06 18:46:00,
2013-07-06 13:00:00,77.0,48.0,-100.00,North,5,3.0,11.0,36,-99.99,,,0.00,,2013-07-06 19:00:00,
2013-07-06 13:09:00,77.0,48.0,-100.00,North,5,3.0,11.0,36,-99.99,,,0.00,,2013-07-06 19:09:00,
2013-07-06 13:20:00,79.0,48.0,-100.00,North,10,6.0,8.0,33,-99.99,,,0.00,,2013-07-06 19:20:00,
2013-07-06 13:29:00,79.0,48.0,-100.00,North,10,6.0,8.0,33,-99.99,,,0.00,,2013-07-06 19:29:00,
2013-07-06 13:56:00,80.0,47.0,-100.00,North,0,5.0,9.0,31,-99.99,,,-99.99,,2013-07-06 19:56:00,
2013-07-06 14:20:00,81.0,47.0,-100.00,NNE,20,6.0,10.0,30,-99.99,,,-99.99,,2013-07-06 20:20:00,
2013-07-06 14:46:00,82.0,46.0,-100.00,ENE,60,9.0,14.0,28,-99.99,,,-99.99,,2013-07-06 20:46:00,
2013-07-06 14:59:00,81.0,46.0,-100.00,NNE,15,9.0,11.0,29,-99.99,,,-99.99,,2013-07-06 20:59:00,
2013-07-06 15:18:00,82.0,46.0,-100.00,ENE,60,9.0,14.0,28,-99.99,,,-99.99,,2013-07-06 21:18:00,
2013-07-06 15:41:00,82.0,46.0,-100.00,ENE,60,9.0,14.0,28,-99.99,,,-99.99,,2013-07-06 21:41:00,
2013-07-06 15:46:00,83.0,46.0,-100.00,NE,35,12.0,17.0,27,-99.99,,,-99.99,,2013-07-06 21:46:00,
2013-07-06 16:00:00,83.0,46.0,-100.00,ENE,65,10.0,14.0,27,-99.99,,,-99.99,,2013-07-06 22:00:00,
2013-07-06 16:21:00,83.0,46.0,-100.00,NE,35,12.0,17.0,27,-99.99,,,-99.99,,2013-07-06 22:21:00,
2013-07-06 16:47:00,84.0,45.0,-100.00,East,90,9.0,18.0,26,-99.99,,,0.00,,2013-07-06 22:47:00,
2013-07-06 17:09:00,84.0,46.0,-100.00,East,80,14.0,19.0,27,-99.99,,,0.00,,2013-07-06 23:09:00,
2013-07-06 17:43:00,84.0,45.0,-100.00,East,90,9.0,18.0,26,-99.99,,,0.00,,2013-07-06 23:43:00,
2013-07-06 18:00:00,83.0,44.0,-100.00,ENE,75,16.0,20.0,25,-99.99,,,0.00,,2013-07-07 00:00:00,
2013-07-06 18:12:00,83.0,44.0,-100.00,ENE,75,16.0,20.0,25,-99.99,,,0.00,,2013-07-07 00:12:00,
2013-07-06 18:30:00,83.0,44.0,-100.00,East,90,12.0,19.0,25,-99.99,,,0.00,,2013-07-07 00:30:00,
2013-07-06 18:46:00,81.0,43.0,-100.00,ENE,75,19.0,24.0,26,-99.99,,,0.00,,2013-07-07 00:46:00,
2013-07-06 18:59:00,83.0,43.0,-100.00,East,85,19.0,22.0,25,-99.99,,,0.00,,2013-07-07 00:59:00,
2013-07-06 19:10:00,83.0,43.0,-100.00,East,85,19.0,22.0,25,-99.99,,,0.00,,2013-07-07 01:10:00,
2013-07-06 19:30:00,81.0,43.0,-100.00,ENE,75,19.0,24.0,26,-99.99,,,0.00,,2013-07-07 01:30:00,
2013-07-06 19:40:00,81.0,43.0,-100.00,ENE,75,19.0,24.0,26,-99.99,,,0.00,,2013-07-07 01:40:00,
2013-07-06 20:11:00,80.0,44.0,-100.00,East,95,14.0,22.0,28,-99.99,,,0.00,,2013-07-07 02:11:00,
2013-07-06 20:19:00,79.0,44.0,-100.00,ENE,65,13.0,20.0,29,-99.99,,,0.00,,2013-07-07 02:19:00,
2013-07-06 20:29:00,79.0,44.0,-100.00,ENE,65,13.0,20.0,29,-99.99,,,0.00,,2013-07-07 02:29:00,
2013-07-06 20:38:00,79.0,44.0,-100.00,ENE,65,13.0,20.0,29,-99.99,,,0.00,,2013-07-07 02:38:00,
2013-07-06 20:46:00,76.0,45.0,-100.00,ENE,75,13.0,21.0,34,-99.99,,,0.00,,2013-07-07 02:46:00,
2013-07-06 20:56:00,77.0,44.0,-100.00,ENE,75,13.0,22.0,31,-99.99,,,0.00,,2013-07-07 02:56:00,
2013-07-06 21:19:00,76.0,45.0,-100.00,ENE,75,13.0,21.0,34,-99.99,,,0.00,,2013-07-07 03:19:00,
2013-07-06 21:57:00,75.0,45.0,-100.00,East,90,9.0,17.0,34,-99.99,,,0.00,,2013-07-07 03:57:00,
2013-07-06 22:01:00,75.0,45.0,-100.00,East,90,9.0,17.0,34,-99.99,,,0.00,,2013-07-07 04:01:00,
2013-07-06 22:11:00,74.0,45.0,-100.00,NE,45,12.0,15.0,35,-99.99,,,0.00,,2013-07-07 04:11:00,
2013-07-06 22:21:00,74.0,45.0,-100.00,NE,45,12.0,15.0,35,-99.99,,,0.00,,2013-07-07 04:21:00,
2013-07-06 22:31:00,74.0,45.0,-100.00,NE,45,12.0,15.0,35,-99.99,,,0.00,,2013-07-07 04:31:00,
2013-07-06 22:41:00,74.0,45.0,-100.00,NE,45,12.0,15.0,35,-99.99,,,0.00,,2013-07-07 04:41:00,
2013-07-06 22:51:00,72.0,48.0,-100.00,North,0,11.0,18.0,42,-99.99,,,0.00,,2013-07-07 04:51:00,
2013-07-06 23:01:00,72.0,48.0,-100.00,North,0,11.0,18.0,42,-99.99,,,0.00,,2013-07-07 05:01:00,
2013-07-06 23:11:00,64.0,57.0,-100.00,North,10,6.0,19.0,79,-99.99,,,0.00,,2013-07-07 05:11:00,
2013-07-06 23:21:00,64.0,57.0,-100.00,North,10,6.0,19.0,79,-99.99,,,0.00,,2013-07-07 05:21:00,
2013-07-06 23:31:00,64.0,57.0,-100.00,North,10,6.0,19.0,79,-99.99,,,0.00,,2013-07-07 05:31:00,
2013-07-06 23:41:00,64.0,57.0,-100.00,North,10,6.0,19.0,79,-99.99,,,0.00,,2013-07-07 05:41:00,
2013-07-06 23:51:00,65.0,55.0,-100.00,ESE,110,13.0,17.0,70,-99.99,,,0.00,,2013-07-07 05:51:00,